Retour au catalogue

ATLAS 5 CENTAUR DEB

LostHEO
NORAD 49347·DEBRIS·🇺🇸 United States

Lancé Oct 17, 2018 depuis Cape Canaveral Space Force Station

Loading…

Prochains Passages (prochaines 24 heures)

TLE

PériméSource: Space-Track

Époque: Mar 17, 2023, 11:44 UTC

1 49347U 18079EY  23076.48949681 -.00000044  00000-0  00000+0 0  9997
2 49347  10.2850 166.0732 4761710  77.2743 330.1355  1.76352966  9965

Suivez ATLAS 5 CENTAUR DEB en temps réel avec AllMySat

Download on the App Store